TimeMST,TemperatureF,Dew PointF,Humidity,Sea Level PressureIn,VisibilityMPH,Wind Direction,Wind SpeedMPH,Gust SpeedMPH,PrecipitationIn,Events,Conditions,WindDirDegrees,DateUTC
12:58 AM,84.4,65.3,53,29.79,10.0,NNW,5.8,-,N/A,,Scattered Clouds,330,2013-09-08 07:58:00
1:58 AM,83.5,64.0,52,29.78,10.0,NNW,2.3,-,N/A,,Partly Cloudy,340,2013-09-08 08:58:00
2:58 AM,82.0,65.7,57,29.78,10.0,NW,3.5,-,N/A,,Scattered Clouds,310,2013-09-08 09:58:00
3:38 AM,82.4,66.2,58,29.81,10.0,WNW,5.8,-,N/A,,Overcast,300,2013-09-08 10:38:00
3:58 AM,80.4,67.1,64,29.77,10.0,ENE,3.5,-,N/A,,Mostly Cloudy,70,2013-09-08 10:58:00
4:58 AM,81.1,65.7,59,29.77,10.0,Calm,Calm,-,N/A,,Scattered Clouds,0,2013-09-08 11:58:00
5:38 AM,80.6,66.2,61,29.82,10.0,Calm,Calm,-,N/A,,Mostly Cloudy,0,2013-09-08 12:38:00
5:58 AM,81.3,66.0,60,29.78,10.0,Calm,Calm,-,N/A,,Mostly Cloudy,0,2013-09-08 12:58:00
6:48 AM,80.6,66.2,61,29.83,10.0,Calm,Calm,-,N/A,,Scattered Clouds,0,2013-09-08 13:48:00
6:58 AM,81.3,66.4,60,29.79,10.0,Calm,Calm,-,N/A,,Scattered Clouds,0,2013-09-08 13:58:00
7:28 AM,82.4,66.2,58,29.84,10.0,NE,3.5,-,N/A,,Mostly Cloudy,50,2013-09-08 14:28:00
7:58 AM,82.2,67.1,60,29.81,10.0,SSE,4.6,-,0.00,,Mostly Cloudy,150,2013-09-08 14:58:00
8:58 AM,74.8,71.2,88,29.86,10.0,SE,11.5,24.2,0.01,Rain,Light Rain,130,2013-09-08 15:58:00
9:08 AM,75.2,71.6,89,29.90,4.0,SE,6.9,-,N/A,Rain,Rain,130,2013-09-08 16:08:00
9:18 AM,73.4,71.6,94,29.90,3.0,East,6.9,-,N/A,Rain,Light Rain,100,2013-09-08 16:18:00
9:28 AM,75.2,71.6,89,29.89,10.0,East,8.1,-,N/A,,Light Drizzle,90,2013-09-08 16:28:00
9:58 AM,74.8,73.0,94,29.87,10.0,ENE,11.5,-,0.08,Rain,Light Rain,70,2013-09-08 16:58:00
10:58 AM,75.6,73.4,93,29.87,10.0,ENE,10.4,-,0.00,,Partly Cloudy,60,2013-09-08 17:58:00
11:28 AM,77.0,71.6,83,29.90,10.0,ENE,10.4,-,N/A,,Mostly Cloudy,60,2013-09-08 18:28:00
11:58 AM,78.1,72.3,82,29.86,10.0,NE,10.4,-,N/A,,Mostly Cloudy,50,2013-09-08 18:58:00
12:58 PM,80.6,70.5,71,29.83,10.0,NNE,8.1,-,N/A,,Partly Cloudy,30,2013-09-08 19:58:00
1:58 PM,83.8,68.9,61,29.79,10.0,ENE,9.2,-,N/A,,Clear,70,2013-09-08 20:58:00
2:58 PM,85.5,67.5,55,29.76,10.0,Variable,4.6,-,N/A,,Clear,0,2013-09-08 21:58:00
3:58 PM,87.3,66.6,50,29.73,10.0,NNE,3.5,-,N/A,,Clear,20,2013-09-08 22:58:00
4:58 PM,88.5,65.7,47,29.71,10.0,NNE,5.8,-,N/A,,Clear,30,2013-09-08 23:58:00
5:58 PM,87.6,65.3,47,29.71,10.0,Variable,2.3,-,N/A,,Clear,0,2013-09-09 00:58:00
6:58 PM,87.1,65.5,48,29.70,10.0,ESE,4.6,-,N/A,,Clear,110,2013-09-09 01:58:00
7:58 PM,86.4,66.2,51,29.71,10.0,SSE,5.8,-,N/A,,Clear,150,2013-09-09 02:58:00
8:58 PM,84.4,67.5,57,29.74,10.0,SSE,5.8,-,N/A,,Partly Cloudy,160,2013-09-09 03:58:00
9:58 PM,83.1,67.8,60,29.75,10.0,SSE,1.2,-,N/A,,Clear,160,2013-09-09 04:58:00
10:58 PM,82.0,68.4,63,29.75,10.0,SW,3.5,-,N/A,,Clear,230,2013-09-09 05:58:00
11:58 PM,80.8,69.1,67,29.75,10.0,Calm,Calm,-,N/A,,Clear,0,2013-09-09 06:58:00